• In Hungary
  • List of Countries
  • For 7 days
  • Water Temperature
  • Satellite Maps
  • Weather Map
  • News
  • Weather Widgets
  • user-avatar
    Login

    Hourly Weather Coslada

    Today, 23 September, Sunday

    Time Temperature Precipitation Wind Pressure Humidity
    00:00 +26°C° 0 mm 2 mps 714 mmHg 31%
    01:00 +26°C° 0 mm 2 mps 714 mmHg 32%
    02:00 +25°C° 0 mm 2 mps 714 mmHg 32%
    03:00 +25°C° 0 mm 1 mps 714 mmHg 33%
    04:00 +24°C° 0 mm 1 mps 714 mmHg 35%
    05:00 +24°C° 0 mm 1 mps 714 mmHg 36%
    06:00 +24°C° 0 mm 1 mps 714 mmHg 37%
    07:00 +25°C° 0 mm 1 mps 714 mmHg 34%
    08:00 +27°C° 0 mm 1 mps 714 mmHg 31%
    09:00 +29°C° 0 mm 1 mps 715 mmHg 28%
    10:00 +31°C° 0 mm 1 mps 715 mmHg 27%
    11:00 +32°C° 0 mm 1 mps 715 mmHg 25%
    12:00 +33°C° 0 mm 1 mps 715 mmHg 23%
    13:00 +34°C° 0 mm 1 mps 714 mmHg 22%
    14:00 +34°C° 0 mm 1 mps 714 mmHg 22%
    15:00 +35°C° 0 mm 1 mps 713 mmHg 21%
    16:00 +34°C° 0 mm 1 mps 713 mmHg 23%
    17:00 +32°C° 0 mm 1 mps 713 mmHg 25%
    18:00 +31°C° 0 mm 1 mps 713 mmHg 27%
    19:00 +31°C° 0 mm 1 mps 713 mmHg 27%
    20:00 +30°C° 0 mm 2 mps 714 mmHg 28%
    21:00 +29°C° 0 mm 2 mps 714 mmHg 28%
    22:00 +28°C° 0 mm 3 mps 714 mmHg 34%
    23:00 +27°C° 0 mm 4 mps 714 mmHg 40%

    Tomorrow, 24 September, Monday

    Time Temperature Precipitation Wind Pressure Humidity
    00:00 +26°C° 0 mm 5 mps 714 mmHg 46%
    01:00 +25°C° 0 mm 4 mps 714 mmHg 49%
    02:00 +23°C° 0 mm 4 mps 714 mmHg 52%
    03:00 +24°C° 0 mm 3 mps 714 mmHg 55%
    04:00 +22°C° 0 mm 3 mps 714 mmHg 56%
    05:00 +22°C° 0 mm 4 mps 714 mmHg 56%
    06:00 +22°C° 0 mm 4 mps 714 mmHg 57%
    07:00 +23°C° 0 mm 4 mps 714 mmHg 53%
    08:00 +25°C° 0 mm 4 mps 714 mmHg 49%
    09:00 +27°C° 0 mm 5 mps 715 mmHg 45%
    10:00 +28°C° 0 mm 4 mps 715 mmHg 41%
    11:00 +30°C° 0 mm 4 mps 715 mmHg 36%
    12:00 +31°C° 0 mm 3 mps 714 mmHg 32%
    13:00 +33°C° 0 mm 3 mps 714 mmHg 30%
    14:00 +34°C° 0 mm 2 mps 713 mmHg 28%
    15:00 +34°C° 0 mm 2 mps 713 mmHg 26%
    16:00 +32°C° 0 mm 2 mps 713 mmHg 28%
    17:00 +31°C° 0 mm 2 mps 712 mmHg 30%
    18:00 +30°C° 0 mm 2 mps 712 mmHg 32%
    19:00 +29°C° 0 mm 2 mps 713 mmHg 35%
    20:00 +28°C° 0 mm 3 mps 713 mmHg 39%
    21:00 +27°C° 0 mm 3 mps 714 mmHg 42%
    22:00 +26°C° 0 mm 4 mps 713 mmHg 45%
    23:00 +25°C° 0 mm 4 mps 713 mmHg 47%

    Day after tomorrow, 25 September, Tuesday

    Time Temperature Precipitation Wind Pressure Humidity
    00:00 +23°C° 0 mm 4 mps 713 mmHg 50%
    01:00 +22°C° 0 mm 4 mps 713 mmHg 51%
    02:00 +22°C° 0 mm 3 mps 713 mmHg 53%
    03:00 +21°C° 0 mm 3 mps 713 mmHg 54%
    04:00 +21°C° 0 mm 3 mps 713 mmHg 55%
    05:00 +21°C° 0 mm 3 mps 712 mmHg 56%
    06:00 +21°C° 0 mm 3 mps 712 mmHg 58%
    07:00 +22°C° 0 mm 3 mps 713 mmHg 55%
    08:00 +24°C° 0 mm 3 mps 713 mmHg 53%
    09:00 +26°C° 0 mm 3 mps 713 mmHg 51%
    10:00 +27°C° 0 mm 3 mps 713 mmHg 47%
    11:00 +29°C° 0 mm 3 mps 713 mmHg 42%
    12:00 +31°C° 0 mm 3 mps 713 mmHg 38%
    13:00 +31°C° 0 mm 3 mps 713 mmHg 35%
    14:00 +32°C° 0 mm 2 mps 712 mmHg 33%
    15:00 +34°C° 0 mm 2 mps 712 mmHg 30%
    16:00 +31°C° 0 mm 3 mps 712 mmHg 34%
    17:00 +30°C° 0 mm 3 mps 712 mmHg 37%
    18:00 +29°C° 0 mm 4 mps 712 mmHg 41%
    19:00 +28°C° 0.2 mm 5 mps 712 mmHg 50%
    20:00 +26°C° 0.2 mm 5 mps 713 mmHg 58%
    21:00 +23°C° 0.2 mm 6 mps 713 mmHg 67%
    22:00 +23°C° 0.3 mm 6 mps 713 mmHg 70%
    23:00 +22°C° 0.3 mm 5 mps 713 mmHg 73%

    26 September, Wednesday

    Time Temperature Precipitation Wind Pressure Humidity
    00:00 +22°C° 0.3 mm 5 mps 713 mmHg 76%
    01:00 +21°C° 0.4 mm 4 mps 713 mmHg 77%
    02:00 +21°C° 0.4 mm 4 mps 713 mmHg 77%
    03:00 +21°C° 0.4 mm 4 mps 713 mmHg 78%
    04:00 +20°C° 0.2 mm 4 mps 713 mmHg 80%
    05:00 +20°C° 0.2 mm 4 mps 713 mmHg 81%
    06:00 +20°C° 0.2 mm 4 mps 714 mmHg 82%
    07:00 +20°C° 0.2 mm 4 mps 714 mmHg 78%
    08:00 +21°C° 0.2 mm 4 mps 714 mmHg 74%
    09:00 +22°C° 0.2 mm 4 mps 715 mmHg 70%
    10:00 +23°C° 0.1 mm 4 mps 715 mmHg 64%
    11:00 +26°C° 0.1 mm 4 mps 715 mmHg 59%
    12:00 +27°C° 0.1 mm 4 mps 715 mmHg 53%
    13:00 +27°C° 0.1 mm 4 mps 715 mmHg 51%
    14:00 +28°C° 0.1 mm 4 mps 714 mmHg 48%
    15:00 +29°C° 0.1 mm 4 mps 714 mmHg 45%
    16:00 +28°C° 0.1 mm 4 mps 714 mmHg 48%
    17:00 +27°C° 0.1 mm 4 mps 715 mmHg 50%
    18:00 +27°C° 0.1 mm 4 mps 715 mmHg 53%
    19:00 +26°C° 0.2 mm 4 mps 715 mmHg 57%
    20:00 +25°C° 0.2 mm 4 mps 716 mmHg 62%
    21:00 +23°C° 0.2 mm 5 mps 716 mmHg 66%
    22:00 +22°C° 0.2 mm 4 mps 716 mmHg 69%
    23:00 +21°C° 0.2 mm 3 mps 716 mmHg 72%

    27 September, Thursday

    Time Temperature Precipitation Wind Pressure Humidity
    00:00 +21°C° 0.2 mm 3 mps 716 mmHg 75%
    01:00 +20°C° 0 mm 3 mps 716 mmHg 76%
    02:00 +20°C° 0 mm 3 mps 716 mmHg 77%
    03:00 +20°C° 0 mm 2 mps 716 mmHg 79%
    04:00 +20°C° 0 mm 2 mps 716 mmHg 79%
    05:00 +19°C° 0 mm 2 mps 716 mmHg 80%
    06:00 +19°C° 0 mm 2 mps 716 mmHg 81%
    07:00 +20°C° 0 mm 3 mps 716 mmHg 75%
    08:00 +21°C° 0 mm 3 mps 716 mmHg 70%
    09:00 +22°C° 0 mm 3 mps 717 mmHg 65%
    10:00 +25°C° 0 mm 3 mps 717 mmHg 59%
    11:00 +26°C° 0 mm 3 mps 717 mmHg 53%
    12:00 +27°C° 0 mm 3 mps 716 mmHg 47%
    13:00 +28°C° 0 mm 3 mps 716 mmHg 45%
    14:00 +28°C° 0 mm 3 mps 715 mmHg 43%
    15:00 +29°C° 0 mm 3 mps 715 mmHg 41%
    16:00 +28°C° 0.1 mm 3 mps 715 mmHg 44%
    17:00 +27°C° 0.1 mm 3 mps 715 mmHg 46%
    18:00 +26°C° 0.1 mm 3 mps 715 mmHg 49%
    19:00 +26°C° 0.1 mm 3 mps 715 mmHg 54%
    20:00 +25°C° 0.1 mm 4 mps 715 mmHg 58%
    21:00 +23°C° 0.1 mm 4 mps 715 mmHg 63%
    22:00 +22°C° 0.2 mm 3 mps 715 mmHg 66%
    23:00 +21°C° 0.2 mm 3 mps 715 mmHg 70%

    28 September, Friday

    Time Temperature Precipitation Wind Pressure Humidity
    00:00 +21°C° 0.2 mm 2 mps 715 mmHg 74%
    01:00 +20°C° 0.1 mm 2 mps 714 mmHg 76%
    02:00 +21°C° 0.1 mm 1 mps 714 mmHg 78%
    03:00 +21°C° 0.1 mm 1 mps 714 mmHg 80%
    04:00 +20°C° 0 mm 1 mps 713 mmHg 81%
    05:00 +20°C° 0 mm 1 mps 713 mmHg 82%
    06:00 +20°C° 0 mm 1 mps 713 mmHg 83%
    07:00 +21°C° 0 mm 1 mps 713 mmHg 77%
    08:00 +22°C° 0 mm 1 mps 713 mmHg 70%
    09:00 +24°C° 0 mm 1 mps 714 mmHg 64%
    10:00 +25°C° 0 mm 1 mps 713 mmHg 58%
    11:00 +26°C° 0 mm 1 mps 713 mmHg 52%
    12:00 +28°C° 0 mm 1 mps 713 mmHg 46%
    13:00 +28°C° 0 mm 1 mps 712 mmHg 44%
    14:00 +29°C° 0 mm 1 mps 712 mmHg 41%
    15:00 +29°C° 0 mm 1 mps 711 mmHg 39%
    16:00 +29°C° 0 mm 1 mps 711 mmHg 40%
    17:00 +28°C° 0 mm 1 mps 711 mmHg 42%
    18:00 +27°C° 0 mm 1 mps 711 mmHg 43%
    19:00 +27°C° 0 mm 1 mps 711 mmHg 46%
    20:00 +26°C° 0 mm 1 mps 711 mmHg 48%
    21:00 +25°C° 0 mm 1 mps 711 mmHg 50%
    22:00 +25°C° 0.1 mm 1 mps 711 mmHg 52%
    23:00 +24°C° 0.1 mm 1 mps 711 mmHg 53%
    Show more